Location: Zagreb
(45.8000°N, 16.0000°E)
Time: 18:53:43
(UTC+02:00)

Altair - Visible Passes

Search period start: 09 August 2020 00:00
Search period end: 19 August 2020 00:00
Orbit: 1501 x 1682 km, 47.2° (Epoch: 09 August)

Date Brightness Start Highest point End Pass type
(mag) Time Alt. Az. Time Alt. Az. Time Alt. Az.
09 Aug 9.0 01:32:33 15° SE 01:32:40 15° SE 01:37:34 10° E visible
09 Aug 7.9 03:30:34 27° SSW 03:35:41 50° SE 03:44:30 10° ENE visible
10 Aug 9.1 01:08:37 13° ESE 01:08:37 13° ESE 01:11:48 10° E visible
10 Aug 7.9 03:06:38 32° SSW 03:10:35 47° SE 03:19:19 10° ENE visible
10 Aug 7.6 05:05:15 10° WSW 05:14:49 88° SSE 05:24:05 10° ENE visible
11 Aug 9.3 00:44:40 11° ESE 00:44:40 11° ESE 00:45:46 10° ESE visible
11 Aug 7.9 02:42:39 36° S 02:45:29 44° SE 02:54:07 10° ENE visible
11 Aug 7.5 04:40:40 12° WSW 04:49:39 86° SSE 04:58:55 10° ENE visible
12 Aug 7.9 02:18:40 38° SSE 02:20:23 41° SE 02:28:55 10° ENE visible
12 Aug 7.5 04:16:40 17° WSW 04:24:28 83° SSE 04:33:46 10° ENE visible
13 Aug 8.0 01:54:38 38° SSE 01:55:18 38° SE 02:03:42 10° ENE visible
13 Aug 7.5 03:52:38 23° WSW 03:59:17 81° SSE 04:08:37 10° ENE visible
14 Aug 8.1 01:30:34 35° SE 01:30:34 35° SE 01:38:28 10° ENE visible
14 Aug 7.4 03:28:34 29° WSW 03:34:08 78° SSE 03:43:27 10° ENE visible
15 Aug 8.3 01:06:29 32° ESE 01:06:29 32° ESE 01:13:14 10° ENE visible
15 Aug 7.4 03:04:28 37° SW 03:08:58 75° SSE 03:18:18 10° ENE visible
15 Aug 7.6 05:04:14 10° W 05:13:50 82° N 05:23:07 10° E visible
16 Aug 8.5 00:42:22 28° ESE 00:42:22 28° ESE 00:47:58 10° ENE visible
16 Aug 7.4 02:40:21 45° SW 02:43:48 72° SSE 02:53:08 10° ENE visible
16 Aug 7.6 04:39:00 10° W 04:48:38 82° N 04:57:56 10° E visible
17 Aug 8.7 00:18:13 23° ESE 00:18:13 23° ESE 00:22:40 10° E visible
17 Aug 7.4 02:16:12 53° SSW 02:18:39 69° SSE 02:27:58 10° ENE visible
17 Aug 7.5 04:14:11 12° W 04:23:26 83° N 04:32:46 10° E visible
17 Aug 8.8 23:54:01 20° E 23:54:01 20° E 23:57:21 10° E visible
18 Aug 7.4 01:52:01 59° SSW 01:53:30 66° SSE 02:02:49 10° ENE visible
18 Aug 7.5 03:50:00 16° W 03:58:14 83° N 04:07:35 10° E visible
18 Aug 9.0 23:29:49 16° E 23:29:49 16° E 23:31:59 10° E visible
